Time,TemperatureF,DewpointF,PressureIn,WindDirection,WindDirectionDegrees,WindSpeedMPH,WindSpeedGustMPH,Humidity,HourlyPrecipIn,Conditions,Clouds,dailyrainin,SoftwareType,DateUTC
2013-11-02 00:01:00,54.3,52.6,29.58,NNW,340,0.0,0.0,94,0.00,,---,0.03,VWS V14.00,2013-11-02 04:01:00,
2013-11-02 00:02:00,54.3,52.6,29.58,NNW,340,0.0,0.0,94,0.00,,---,0.03,VWS V14.00,2013-11-02 04:02:00,
2013-11-02 00:03:00,54.4,52.7,29.58,NNW,340,0.0,0.0,94,0.00,,---,0.00,VWS V14.00,2013-11-02 04:03:00,
2013-11-02 00:08:00,54.4,52.7,29.58,NNW,340,0.0,0.0,94,0.00,,---,0.00,VWS V14.00,2013-11-02 04:08:00,
2013-11-02 00:13:00,54.2,52.5,29.58,NNW,340,0.0,0.0,94,0.00,,---,0.00,VWS V14.00,2013-11-02 04:13:00,
2013-11-02 00:18:00,53.8,52.1,29.57,NNW,348,0.0,0.0,94,0.00,,---,0.00,VWS V14.00,2013-11-02 04:18:00,
2013-11-02 00:23:00,53.4,51.4,29.57,North,350,0.0,0.0,93,0.00,,---,0.00,VWS V14.00,2013-11-02 04:23:00,
2013-11-02 00:28:00,53.0,51.3,29.57,North,350,0.0,0.0,94,0.00,,---,0.00,VWS V14.00,2013-11-02 04:28:00,
2013-11-02 00:33:00,52.7,51.0,29.57,North,352,0.0,0.0,94,0.00,,---,0.00,VWS V14.00,2013-11-02 04:33:00,
2013-11-02 00:38:00,52.6,50.9,29.57,North,349,0.0,0.0,94,0.00,,---,0.00,VWS V14.00,2013-11-02 04:38:00,
2013-11-02 00:43:00,52.5,50.8,29.57,North,352,0.0,0.0,94,0.00,,---,0.00,VWS V14.00,2013-11-02 04:43:00,
2013-11-02 00:48:00,52.3,50.6,29.57,North,349,0.0,0.0,94,0.00,,---,0.00,VWS V14.00,2013-11-02 04:48:00,
2013-11-02 00:53:00,52.1,50.4,29.57,North,350,0.0,0.0,94,0.00,,---,0.00,VWS V14.00,2013-11-02 04:53:00,
2013-11-02 00:58:00,51.9,50.2,29.57,North,349,0.0,0.0,94,0.00,,---,0.00,VWS V14.00,2013-11-02 04:58:00,
2013-11-02 01:03:00,51.7,50.3,29.57,North,349,0.0,0.0,95,0.00,,---,0.00,VWS V14.00,2013-11-02 05:03:00,
2013-11-02 01:08:00,51.6,50.2,29.58,North,351,0.0,0.0,95,0.00,,---,0.00,VWS V14.00,2013-11-02 05:08:00,
2013-11-02 01:13:00,51.3,49.9,29.58,North,352,0.0,0.0,95,0.00,,---,0.00,VWS V14.00,2013-11-02 05:13:00,
2013-11-02 01:18:00,51.3,49.9,29.58,North,352,0.0,0.0,95,0.00,,---,0.00,VWS V14.00,2013-11-02 05:18:00,
2013-11-02 01:23:00,51.0,49.6,29.58,North,351,0.0,0.0,95,0.00,,---,0.00,VWS V14.00,2013-11-02 05:23:00,
2013-11-02 01:28:00,50.7,49.3,29.58,North,352,0.0,0.0,95,0.00,,---,0.00,VWS V14.00,2013-11-02 05:28:00,
2013-11-02 01:33:00,50.4,49.0,29.57,North,352,0.0,0.0,95,0.00,,---,0.00,VWS V14.00,2013-11-02 05:33:00,
2013-11-02 01:38:00,50.3,48.9,29.57,North,349,0.0,0.0,95,0.00,,---,0.00,VWS V14.00,2013-11-02 05:38:00,
2013-11-02 01:44:00,50.3,49.2,29.57,North,352,0.0,0.0,96,0.00,,---,0.00,VWS V14.00,2013-11-02 05:44:00,
2013-11-02 01:49:00,50.4,49.3,29.57,North,352,0.0,0.0,96,0.00,,---,0.00,VWS V14.00,2013-11-02 05:49:00,
2013-11-02 01:54:00,50.3,49.2,29.57,North,352,0.0,0.0,96,0.00,,---,0.00,VWS V14.00,2013-11-02 05:54:00,
2013-11-02 01:59:00,50.2,49.1,29.57,North,352,0.0,0.0,96,0.00,,---,0.00,VWS V14.00,2013-11-02 05:59:00,
2013-11-02 02:04:00,49.9,48.8,29.56,North,349,1.0,2.0,96,0.00,,---,0.00,VWS V14.00,2013-11-02 06:04:00,
2013-11-02 02:09:00,50.0,48.9,29.57,North,349,1.0,1.0,96,0.00,,---,0.00,VWS V14.00,2013-11-02 06:09:00,
2013-11-02 02:14:00,50.0,48.9,29.56,NNW,342,1.0,2.0,96,0.00,,---,0.00,VWS V14.00,2013-11-02 06:14:00,
2013-11-02 02:20:00,49.9,48.8,29.56,NNW,342,0.0,0.0,96,0.00,,---,0.00,VWS V14.00,2013-11-02 06:20:00,
2013-11-02 02:25:00,49.7,48.6,29.56,NNW,343,0.0,0.0,96,0.00,,---,0.00,VWS V14.00,2013-11-02 06:25:00,
2013-11-02 02:30:00,49.6,48.5,29.56,NNW,342,0.0,0.0,96,0.00,,---,0.00,VWS V14.00,2013-11-02 06:30:00,
2013-11-02 02:35:00,49.4,48.3,29.57,NNW,342,0.0,0.0,96,0.00,,---,0.00,VWS V14.00,2013-11-02 06:35:00,
2013-11-02 02:40:00,49.3,48.2,29.57,NNW,343,0.0,0.0,96,0.00,,---,0.00,VWS V14.00,2013-11-02 06:40:00,
2013-11-02 02:45:00,49.1,48.0,29.56,NNW,343,0.0,0.0,96,0.00,,---,0.00,VWS V14.00,2013-11-02 06:45:00,
2013-11-02 02:50:00,48.9,47.8,29.56,NNW,343,0.0,0.0,96,0.00,,---,0.00,VWS V14.00,2013-11-02 06:50:00,
2013-11-02 02:56:00,48.7,47.6,29.56,NNW,343,0.0,0.0,96,0.00,,---,0.00,VWS V14.00,2013-11-02 06:56:00,
2013-11-02 03:01:00,48.6,47.5,29.56,NNW,343,0.0,0.0,96,0.00,,---,0.00,VWS V14.00,2013-11-02 07:01:00,
2013-11-02 03:06:00,48.4,47.3,29.56,NNW,343,0.0,0.0,96,0.00,,---,0.00,VWS V14.00,2013-11-02 07:06:00,
2013-11-02 03:11:00,48.4,47.3,29.56,NNW,343,0.0,0.0,96,0.00,,---,0.00,VWS V14.00,2013-11-02 07:11:00,
2013-11-02 03:16:00,48.3,47.2,29.56,NNW,343,0.0,0.0,96,0.00,,---,0.00,VWS V14.00,2013-11-02 07:16:00,
2013-11-02 03:21:00,48.4,47.3,29.56,NNW,343,0.0,0.0,96,0.00,,---,0.00,VWS V14.00,2013-11-02 07:21:00,
2013-11-02 03:26:00,48.2,47.1,29.55,NNW,343,0.0,0.0,96,0.00,,---,0.00,VWS V14.00,2013-11-02 07:26:00,
2013-11-02 03:31:00,48.2,47.1,29.55,NNW,343,0.0,0.0,96,0.00,,---,0.00,VWS V14.00,2013-11-02 07:31:00,
2013-11-02 03:36:00,48.3,47.2,29.56,NNW,343,0.0,0.0,96,0.00,,---,0.00,VWS V14.00,2013-11-02 07:36:00,
2013-11-02 03:41:00,48.3,47.2,29.56,NNW,343,0.0,0.0,96,0.00,,---,0.00,VWS V14.00,2013-11-02 07:41:00,
2013-11-02 03:47:00,48.2,47.1,29.56,NNW,343,0.0,0.0,96,0.00,,---,0.00,VWS V14.00,2013-11-02 07:47:00,
2013-11-02 03:52:00,48.3,47.2,29.55,NNW,343,0.0,0.0,96,0.00,,---,0.00,VWS V14.00,2013-11-02 07:52:00,
2013-11-02 03:57:00,48.3,47.2,29.56,NNW,345,0.0,0.0,96,0.00,,---,0.00,VWS V14.00,2013-11-02 07:57:00,
2013-11-02 04:02:00,48.1,47.0,29.56,NNW,345,0.0,0.0,96,0.00,,---,0.00,VWS V14.00,2013-11-02 08:02:00,
2013-11-02 04:07:00,48.1,47.0,29.56,NNW,343,0.0,0.0,96,0.00,,---,0.00,VWS V14.00,2013-11-02 08:07:00,
2013-11-02 04:12:00,48.0,46.9,29.56,NNW,343,0.0,0.0,96,0.00,,---,0.00,VWS V14.00,2013-11-02 08:12:00,
2013-11-02 04:17:00,47.3,47.3,29.57,NNW,342,0.0,0.0,100,0.00,,---,0.00,VWS V14.00,2013-11-02 08:17:00,
2013-11-02 04:22:00,47.3,47.3,29.57,NNW,342,0.0,0.0,100,0.00,,---,0.00,VWS V14.00,2013-11-02 08:22:00,
2013-11-02 04:27:00,47.3,47.3,29.57,NNW,342,0.0,0.0,100,0.00,,---,0.00,VWS V14.00,2013-11-02 08:27:00,
2013-11-02 04:32:00,47.3,47.3,29.57,NNW,342,0.0,0.0,100,0.00,,---,0.00,VWS V14.00,2013-11-02 08:32:00,
2013-11-02 04:38:00,47.3,47.3,29.57,NNW,342,0.0,0.0,100,0.00,,---,0.00,VWS V14.00,2013-11-02 08:38:00,
2013-11-02 04:43:00,47.3,47.3,29.57,NNW,342,0.0,0.0,100,0.00,,---,0.00,VWS V14.00,2013-11-02 08:43:00,
2013-11-02 04:48:00,47.3,47.3,29.57,NNW,342,0.0,0.0,100,0.00,,---,0.00,VWS V14.00,2013-11-02 08:48:00,
2013-11-02 04:53:00,47.3,47.3,29.57,NNW,342,0.0,0.0,100,0.00,,---,0.00,VWS V14.00,2013-11-02 08:53:00,
2013-11-02 04:58:00,47.3,47.3,29.57,NNW,342,0.0,0.0,100,0.00,,---,0.00,VWS V14.00,2013-11-02 08:58:00,
2013-11-02 05:03:00,47.3,47.3,29.57,NNW,342,0.0,0.0,100,0.00,,---,0.00,VWS V14.00,2013-11-02 09:03:00,
2013-11-02 05:08:00,47.3,47.3,29.57,NNW,342,0.0,0.0,100,0.00,,---,0.00,VWS V14.00,2013-11-02 09:08:00,
2013-11-02 05:13:00,47.3,47.3,29.57,NNW,342,0.0,0.0,100,0.00,,---,0.00,VWS V14.00,2013-11-02 09:13:00,
2013-11-02 05:18:00,47.3,47.3,29.57,NNW,342,0.0,0.0,100,0.00,,---,0.00,VWS V14.00,2013-11-02 09:18:00,
2013-11-02 05:24:00,47.3,47.3,29.57,NNW,342,0.0,0.0,100,0.00,,---,0.00,VWS V14.00,2013-11-02 09:24:00,
2013-11-02 05:29:00,47.3,47.3,29.57,NNW,342,0.0,0.0,100,0.00,,---,0.00,VWS V14.00,2013-11-02 09:29:00,
2013-11-02 05:34:00,47.3,47.3,29.57,NNW,342,0.0,0.0,100,0.00,,---,0.00,VWS V14.00,2013-11-02 09:34:00,
2013-11-02 05:39:00,47.3,47.3,29.57,NNW,342,0.0,0.0,100,0.00,,---,0.00,VWS V14.00,2013-11-02 09:39:00,
2013-11-02 05:44:00,47.3,47.3,29.57,NNW,342,0.0,0.0,100,0.00,,---,0.00,VWS V14.00,2013-11-02 09:44:00,
2013-11-02 05:49:00,47.3,47.3,29.56,NNW,342,0.0,0.0,100,0.00,,---,0.00,VWS V14.00,2013-11-02 09:49:00,
2013-11-02 05:54:00,47.3,47.3,29.57,NNW,342,0.0,0.0,100,0.00,,---,0.00,VWS V14.00,2013-11-02 09:54:00,
2013-11-02 05:59:00,47.3,47.3,29.57,NNW,342,0.0,0.0,100,0.00,,---,0.00,VWS V14.00,2013-11-02 09:59:00,
2013-11-02 06:04:00,47.3,47.3,29.57,NNW,342,0.0,0.0,100,0.00,,---,0.00,VWS V14.00,2013-11-02 10:04:00,
2013-11-02 06:09:00,47.3,47.3,29.56,NNW,342,0.0,0.0,100,0.00,,---,0.00,VWS V14.00,2013-11-02 10:09:00,
2013-11-02 06:14:00,47.3,47.3,29.57,NNW,342,0.0,0.0,100,0.00,,---,0.00,VWS V14.00,2013-11-02 10:14:00,
2013-11-02 06:19:00,47.3,47.3,29.57,NNW,342,0.0,0.0,100,0.00,,---,0.00,VWS V14.00,2013-11-02 10:19:00,
2013-11-02 06:25:00,47.3,47.3,29.57,NNW,342,0.0,0.0,100,0.00,,---,0.00,VWS V14.00,2013-11-02 10:25:00,
2013-11-02 06:30:00,47.3,47.3,29.57,NNW,342,0.0,0.0,100,0.00,,---,0.00,VWS V14.00,2013-11-02 10:30:00,
2013-11-02 06:35:00,47.3,47.3,29.57,NNW,342,0.0,0.0,100,0.00,,---,0.00,VWS V14.00,2013-11-02 10:35:00,
2013-11-02 06:40:00,47.3,47.3,29.57,NNW,342,0.0,0.0,100,0.00,,---,0.00,VWS V14.00,2013-11-02 10:40:00,
2013-11-02 06:45:00,47.3,47.3,29.57,NNW,342,0.0,0.0,100,0.00,,---,0.00,VWS V14.00,2013-11-02 10:45:00,
2013-11-02 06:50:00,47.3,47.3,29.57,NNW,342,0.0,0.0,100,0.00,,---,0.00,VWS V14.00,2013-11-02 10:50:00,
2013-11-02 06:55:00,47.3,47.3,29.58,NNW,342,0.0,0.0,100,0.00,,---,0.00,VWS V14.00,2013-11-02 10:55:00,
2013-11-02 07:00:00,47.3,47.3,29.58,NNW,342,0.0,0.0,100,0.00,,---,0.00,VWS V14.00,2013-11-02 11:00:00,
2013-11-02 07:05:00,47.3,47.3,29.57,NNW,342,0.0,0.0,100,0.00,,---,0.00,VWS V14.00,2013-11-02 11:05:00,
2013-11-02 07:10:00,47.3,47.3,29.58,NNW,342,0.0,0.0,100,0.00,,---,0.00,VWS V14.00,2013-11-02 11:10:00,
2013-11-02 07:15:00,47.3,47.3,29.58,NNW,342,0.0,0.0,100,0.00,,---,0.00,VWS V14.00,2013-11-02 11:15:00,
2013-11-02 07:20:00,47.3,47.3,29.58,NNW,342,0.0,0.0,100,0.00,,---,0.00,VWS V14.00,2013-11-02 11:20:00,
2013-11-02 07:26:00,47.3,47.3,29.59,NNW,342,0.0,0.0,100,0.00,,---,0.00,VWS V14.00,2013-11-02 11:26:00,
2013-11-02 07:31:00,47.3,47.3,29.59,NNW,342,0.0,0.0,100,0.00,,---,0.00,VWS V14.00,2013-11-02 11:31:00,
2013-11-02 07:36:00,47.3,47.3,29.59,NNW,342,0.0,0.0,100,0.00,,---,0.00,VWS V14.00,2013-11-02 11:36:00,
2013-11-02 07:41:00,47.3,47.3,29.59,NNW,342,0.0,0.0,100,0.00,,---,0.00,VWS V14.00,2013-11-02 11:41:00,
2013-11-02 07:46:00,47.3,47.3,29.59,NNW,342,0.0,0.0,100,0.00,,---,0.00,VWS V14.00,2013-11-02 11:46:00,
2013-11-02 07:51:00,47.3,47.3,29.59,NNW,342,0.0,0.0,100,0.00,,---,0.00,VWS V14.00,2013-11-02 11:51:00,
2013-11-02 07:56:00,47.3,47.3,29.60,NNW,342,0.0,0.0,100,0.00,,---,0.00,VWS V14.00,2013-11-02 11:56:00,
2013-11-02 08:01:00,47.3,47.3,29.60,NNW,342,0.0,0.0,100,0.00,,---,0.00,VWS V14.00,2013-11-02 12:01:00,
2013-11-02 08:06:00,47.3,47.3,29.60,NNW,342,0.0,0.0,100,0.00,,---,0.00,VWS V14.00,2013-11-02 12:06:00,
2013-11-02 08:11:00,47.3,47.3,29.60,NNW,342,0.0,0.0,100,0.00,,---,0.00,VWS V14.00,2013-11-02 12:11:00,
2013-11-02 08:16:00,47.3,47.3,29.61,NNW,342,0.0,0.0,100,0.00,,---,0.00,VWS V14.00,2013-11-02 12:16:00,
2013-11-02 08:21:00,47.3,47.3,29.61,NNW,342,0.0,0.0,100,0.00,,---,0.00,VWS V14.00,2013-11-02 12:21:00,
2013-11-02 08:27:00,49.7,48.0,29.61,North,9,0.0,0.0,94,0.00,,---,0.00,VWS V14.00,2013-11-02 12:27:00,
2013-11-02 08:32:00,50.1,48.4,29.61,North,9,0.0,0.0,94,0.00,,---,0.00,VWS V14.00,2013-11-02 12:32:00,
2013-11-02 08:37:00,50.6,48.7,29.61,North,9,0.0,0.0,93,0.00,,---,0.00,VWS V14.00,2013-11-02 12:37:00,
2013-11-02 08:42:00,51.2,49.2,29.60,North,9,0.0,0.0,93,0.00,,---,0.00,VWS V14.00,2013-11-02 12:42:00,
2013-11-02 08:47:00,51.7,49.5,29.60,NNE,13,0.0,0.0,92,0.00,,---,0.00,VWS V14.00,2013-11-02 12:47:00,
2013-11-02 08:52:00,52.4,49.6,29.60,NNE,16,0.0,0.0,90,0.00,,---,0.00,VWS V14.00,2013-11-02 12:52:00,
2013-11-02 08:57:00,52.8,49.3,29.60,NNE,26,0.0,0.0,88,0.00,,---,0.00,VWS V14.00,2013-11-02 12:57:00,
2013-11-02 09:02:00,53.3,49.2,29.60,NNW,329,0.0,0.0,86,0.00,,---,0.00,VWS V14.00,2013-11-02 13:02:00,
2013-11-02 09:07:00,53.4,49.0,29.61,NNE,12,1.0,2.0,85,0.00,,---,0.00,VWS V14.00,2013-11-02 13:07:00,
2013-11-02 09:12:00,53.8,49.4,29.60,North,355,1.0,2.0,85,0.00,,---,0.00,VWS V14.00,2013-11-02 13:12:00,
2013-11-02 09:17:00,54.1,49.7,29.60,NNE,13,0.0,2.0,85,0.00,,---,0.00,VWS V14.00,2013-11-02 13:17:00,
2013-11-02 09:22:00,54.5,50.1,29.60,North,359,0.0,1.0,85,0.00,,---,0.00,VWS V14.00,2013-11-02 13:22:00,
2013-11-02 09:27:00,54.7,50.0,29.60,North,1,0.0,0.0,84,0.00,,---,0.00,VWS V14.00,2013-11-02 13:27:00,
2013-11-02 09:33:00,54.9,49.8,29.60,NE,42,0.0,0.0,83,0.00,,---,0.00,VWS V14.00,2013-11-02 13:33:00,
2013-11-02 09:38:00,55.0,49.6,29.60,NE,41,0.0,0.0,82,0.00,,---,0.00,VWS V14.00,2013-11-02 13:38:00,
2013-11-02 09:43:00,55.0,49.6,29.60,NE,42,0.0,0.0,82,0.00,,---,0.00,VWS V14.00,2013-11-02 13:43:00,
2013-11-02 09:48:00,54.9,49.5,29.60,NE,43,0.0,0.0,82,0.00,,---,0.00,VWS V14.00,2013-11-02 13:48:00,
2013-11-02 09:53:00,54.7,49.3,29.60,East,96,0.0,0.0,82,0.00,,---,0.00,VWS V14.00,2013-11-02 13:53:00,
2013-11-02 09:58:00,54.7,49.3,29.60,East,86,0.0,0.0,82,0.00,,---,0.00,VWS V14.00,2013-11-02 13:58:00,
2013-11-02 10:03:00,55.0,49.9,29.59,East,86,0.0,0.0,83,0.00,,---,0.00,VWS V14.00,2013-11-02 14:03:00,
2013-11-02 10:08:00,55.6,50.2,29.59,NNE,29,0.0,0.0,82,0.00,,---,0.00,VWS V14.00,2013-11-02 14:08:00,
2013-11-02 10:13:00,55.9,49.8,29.59,NNW,345,2.0,2.0,80,0.00,,---,0.00,VWS V14.00,2013-11-02 14:13:00,
2013-11-02 10:18:00,56.4,50.3,29.59,NNW,347,0.0,3.0,80,0.00,,---,0.00,VWS V14.00,2013-11-02 14:18:00,
2013-11-02 10:23:00,56.9,50.5,29.59,NNW,335,0.0,0.0,79,0.00,,---,0.00,VWS V14.00,2013-11-02 14:23:00,
2013-11-02 10:28:00,57.3,50.8,29.59,NNW,343,0.0,0.0,79,0.00,,---,0.00,VWS V14.00,2013-11-02 14:28:00,
2013-11-02 10:33:00,57.6,50.5,29.58,NNW,347,0.0,0.0,77,0.00,,---,0.00,VWS V14.00,2013-11-02 14:33:00,
2013-11-02 10:38:00,57.8,50.7,29.58,WNW,295,1.0,2.0,77,0.00,,---,0.00,VWS V14.00,2013-11-02 14:38:00,
2013-11-02 10:43:00,58.1,50.9,29.58,NE,37,0.0,3.0,77,0.00,,---,0.00,VWS V14.00,2013-11-02 14:43:00,
2013-11-02 10:48:00,58.8,51.3,29.58,NW,322,1.0,3.0,76,0.00,,---,0.00,VWS V14.00,2013-11-02 14:48:00,
2013-11-02 10:54:00,59.4,52.2,29.58,SW,232,3.0,3.0,77,0.00,,---,0.00,VWS V14.00,2013-11-02 14:54:00,
2013-11-02 10:59:00,59.9,51.6,29.58,WNW,286,0.0,0.0,74,0.00,,---,0.00,VWS V14.00,2013-11-02 14:59:00,
2013-11-02 11:04:00,60.7,51.2,29.58,NW,326,0.0,2.0,71,0.00,,---,0.00,VWS V14.00,2013-11-02 15:04:00,
2013-11-02 11:09:00,60.9,51.8,29.58,SW,215,2.0,2.0,72,0.00,,---,0.00,VWS V14.00,2013-11-02 15:09:00,
2013-11-02 11:14:00,61.3,51.5,29.58,South,186,3.0,4.0,70,0.00,,---,0.00,VWS V14.00,2013-11-02 15:14:00,
2013-11-02 11:19:00,61.3,51.1,29.57,SE,142,2.0,2.0,69,0.00,,---,0.00,VWS V14.00,2013-11-02 15:19:00,
2013-11-02 11:24:00,61.7,51.4,29.58,WSW,256,2.0,3.0,69,0.00,,---,0.00,VWS V14.00,2013-11-02 15:24:00,
2013-11-02 11:29:00,61.6,51.7,29.58,WSW,256,0.0,0.0,70,0.00,,---,0.00,VWS V14.00,2013-11-02 15:29:00,
2013-11-02 11:34:00,61.7,51.4,29.58,West,266,0.0,2.0,69,0.00,,---,0.00,VWS V14.00,2013-11-02 15:34:00,
2013-11-02 11:39:00,62.1,51.4,29.58,SSE,150,0.0,2.0,68,0.00,,---,0.00,VWS V14.00,2013-11-02 15:39:00,
2013-11-02 11:45:00,62.2,51.5,29.57,West,276,0.0,1.0,68,0.00,,---,0.00,VWS V14.00,2013-11-02 15:45:00,
2013-11-02 11:50:00,62.5,51.4,29.57,West,271,0.0,2.0,67,0.00,,---,0.00,VWS V14.00,2013-11-02 15:50:00,
2013-11-02 11:55:00,63.2,51.7,29.57,SW,224,0.0,2.0,66,0.00,,---,0.00,VWS V14.00,2013-11-02 15:55:00,
2013-11-02 12:00:00,63.3,51.8,29.56,ESE,115,2.0,3.0,66,0.00,,---,0.00,VWS V14.00,2013-11-02 16:00:00,
2013-11-02 12:05:00,63.5,51.5,29.56,East,94,0.0,3.0,65,0.00,,---,0.00,VWS V14.00,2013-11-02 16:05:00,
2013-11-02 12:10:00,63.9,51.1,29.56,SSW,203,4.0,5.0,63,0.00,,---,0.00,VWS V14.00,2013-11-02 16:10:00,
2013-11-02 12:16:00,64.4,52.0,29.56,SE,131,4.0,4.0,64,0.00,,---,0.00,VWS V14.00,2013-11-02 16:16:00,
2013-11-02 12:21:00,64.9,51.2,29.56,SE,133,0.0,5.0,61,0.00,,---,0.00,VWS V14.00,2013-11-02 16:21:00,
2013-11-02 12:26:00,65.4,52.1,29.56,West,262,3.0,5.0,62,0.00,,---,0.00,VWS V14.00,2013-11-02 16:26:00,
2013-11-02 12:31:00,65.6,50.9,29.56,SE,134,4.0,5.0,59,0.00,,---,0.00,VWS V14.00,2013-11-02 16:31:00,
2013-11-02 12:36:00,65.6,48.5,29.56,South,181,3.0,6.0,54,0.00,,---,0.00,VWS V14.00,2013-11-02 16:36:00,
2013-11-02 12:41:00,66.2,49.1,29.56,SW,225,3.0,6.0,54,0.00,,---,0.00,VWS V14.00,2013-11-02 16:41:00,
2013-11-02 12:47:00,66.5,49.4,29.56,WSW,257,3.0,5.0,54,0.00,,---,0.00,VWS V14.00,2013-11-02 16:47:00,
2013-11-02 12:52:00,67.1,48.4,29.56,SE,143,0.0,5.0,51,0.00,,---,0.00,VWS V14.00,2013-11-02 16:52:00,
2013-11-02 12:57:00,67.3,48.6,29.55,SSW,197,1.0,5.0,51,0.00,,---,0.00,VWS V14.00,2013-11-02 16:57:00,
2013-11-02 13:02:00,67.5,48.8,29.55,SE,140,5.0,5.0,51,0.00,,---,0.00,VWS V14.00,2013-11-02 17:02:00,
2013-11-02 13:07:00,67.7,48.9,29.55,SE,139,0.0,5.0,51,0.00,,---,0.00,VWS V14.00,2013-11-02 17:07:00,
2013-11-02 13:12:00,68.0,48.7,29.55,SW,214,7.0,8.0,50,0.00,,---,0.00,VWS V14.00,2013-11-02 17:12:00,
2013-11-02 13:17:00,67.9,48.1,29.55,SSW,205,2.0,10.0,49,0.00,,---,0.00,VWS V14.00,2013-11-02 17:17:00,
2013-11-02 13:22:00,68.0,48.2,29.54,South,176,3.0,5.0,49,0.00,,---,0.00,VWS V14.00,2013-11-02 17:22:00,
2013-11-02 13:28:00,67.9,48.1,29.54,WSW,243,5.0,8.0,49,0.00,,---,0.00,VWS V14.00,2013-11-02 17:28:00,
2013-11-02 13:33:00,67.5,48.8,29.54,WSW,240,4.0,5.0,51,0.00,,---,0.00,VWS V14.00,2013-11-02 17:33:00,
2013-11-02 13:38:00,67.3,48.6,29.53,South,187,4.0,6.0,51,0.00,,---,0.00,VWS V14.00,2013-11-02 17:38:00,
2013-11-02 13:43:00,67.3,47.5,29.54,ESE,106,4.0,7.0,49,0.00,,---,0.00,VWS V14.00,2013-11-02 17:43:00,
2013-11-02 13:48:00,66.9,47.7,29.54,SSE,149,3.0,7.0,50,0.00,,---,0.00,VWS V14.00,2013-11-02 17:48:00,
2013-11-02 13:53:00,67.2,46.9,29.54,SE,146,4.0,6.0,48,0.00,,---,0.00,VWS V14.00,2013-11-02 17:53:00,
2013-11-02 13:58:00,66.9,47.1,29.53,SSW,205,3.0,7.0,49,0.00,,---,0.00,VWS V14.00,2013-11-02 17:58:00,
2013-11-02 14:03:00,67.0,47.2,29.53,SSE,150,2.0,5.0,49,0.00,,---,0.00,VWS V14.00,2013-11-02 18:03:00,
2013-11-02 14:08:00,66.8,47.0,29.53,South,174,4.0,5.0,49,0.00,,---,0.00,VWS V14.00,2013-11-02 18:08:00,
2013-11-02 14:13:00,67.0,47.2,29.53,South,183,3.0,4.0,49,0.00,,---,0.00,VWS V14.00,2013-11-02 18:13:00,
2013-11-02 14:18:00,67.6,47.8,29.53,SSW,203,8.0,8.0,49,0.00,,---,0.00,VWS V14.00,2013-11-02 18:18:00,
2013-11-02 14:23:00,67.7,47.9,29.53,South,184,7.0,7.0,49,0.00,,---,0.00,VWS V14.00,2013-11-02 18:23:00,
2013-11-02 14:28:00,67.3,47.0,29.53,SSW,205,8.0,9.0,48,0.00,,---,0.00,VWS V14.00,2013-11-02 18:28:00,
2013-11-02 14:33:00,67.2,47.4,29.53,SSW,202,4.0,6.0,49,0.00,,---,0.00,VWS V14.00,2013-11-02 18:33:00,
2013-11-02 14:38:00,67.0,47.8,29.53,SSE,167,2.0,3.0,50,0.00,,---,0.00,VWS V14.00,2013-11-02 18:38:00,
2013-11-02 14:43:00,66.8,47.0,29.53,SSE,165,7.0,8.0,49,0.00,,---,0.00,VWS V14.00,2013-11-02 18:43:00,
2013-11-02 14:48:00,66.6,47.4,29.52,SW,215,6.0,6.0,50,0.00,,---,0.00,VWS V14.00,2013-11-02 18:48:00,
2013-11-02 14:54:00,66.6,46.9,29.53,SSW,197,9.0,9.0,49,0.00,,---,0.00,VWS V14.00,2013-11-02 18:54:00,
2013-11-02 14:59:00,66.4,46.1,29.53,SE,138,6.0,9.0,48,0.00,,---,0.00,VWS V14.00,2013-11-02 18:59:00,
2013-11-02 15:04:00,66.3,46.0,29.52,SSW,200,4.0,6.0,48,0.00,,---,0.00,VWS V14.00,2013-11-02 19:04:00,
2013-11-02 15:09:00,66.3,46.6,29.52,West,264,1.0,2.0,49,0.00,,---,0.00,VWS V14.00,2013-11-02 19:09:00,
2013-11-02 15:14:00,66.2,47.0,29.52,WNW,293,1.0,2.0,50,0.00,,---,0.00,VWS V14.00,2013-11-02 19:14:00,
2013-11-02 15:19:00,66.1,47.5,29.53,NW,305,1.0,4.0,51,0.00,,---,0.00,VWS V14.00,2013-11-02 19:19:00,
2013-11-02 15:24:00,66.1,48.0,29.53,WSW,256,1.0,2.0,52,0.00,,---,0.00,VWS V14.00,2013-11-02 19:24:00,
2013-11-02 15:30:00,66.0,47.9,29.53,WSW,238,2.0,6.0,52,0.00,,---,0.00,VWS V14.00,2013-11-02 19:30:00,
2013-11-02 15:35:00,66.0,48.4,29.53,WNW,285,2.0,5.0,53,0.00,,---,0.00,VWS V14.00,2013-11-02 19:35:00,
2013-11-02 15:40:00,65.9,47.3,29.53,WNW,293,5.0,9.0,51,0.00,,---,0.00,VWS V14.00,2013-11-02 19:40:00,
2013-11-02 15:45:00,65.9,46.2,29.53,NW,313,9.0,10.0,49,0.00,,---,0.00,VWS V14.00,2013-11-02 19:45:00,
2013-11-02 15:50:00,65.9,46.2,29.53,NW,307,7.0,9.0,49,0.00,,---,0.00,VWS V14.00,2013-11-02 19:50:00,
2013-11-02 15:55:00,65.9,46.2,29.54,West,260,2.0,6.0,49,0.00,,---,0.00,VWS V14.00,2013-11-02 19:55:00,
2013-11-02 16:00:00,65.9,46.2,29.53,NW,311,3.0,11.0,49,0.00,,---,0.00,VWS V14.00,2013-11-02 20:00:00,
2013-11-02 16:05:00,65.7,46.6,29.53,West,270,3.0,9.0,50,0.00,,---,0.00,VWS V14.00,2013-11-02 20:05:00,
2013-11-02 16:10:00,65.5,46.4,29.53,WNW,297,1.0,9.0,50,0.00,,---,0.00,VWS V14.00,2013-11-02 20:10:00,
2013-11-02 16:15:00,65.4,46.8,29.54,NNW,328,7.0,9.0,51,0.00,,---,0.00,VWS V14.00,2013-11-02 20:15:00,
2013-11-02 16:21:00,65.2,46.6,29.54,NW,307,5.0,11.0,51,0.00,,---,0.00,VWS V14.00,2013-11-02 20:21:00,
2013-11-02 16:26:00,65.1,46.5,29.54,West,281,7.0,8.0,51,0.00,,---,0.00,VWS V14.00,2013-11-02 20:26:00,
2013-11-02 16:31:00,65.0,47.0,29.54,WSW,252,4.0,5.0,52,0.00,,---,0.00,VWS V14.00,2013-11-02 20:31:00,
2013-11-02 16:36:00,64.8,46.8,29.53,NW,319,1.0,8.0,52,0.00,,---,0.00,VWS V14.00,2013-11-02 20:36:00,
2013-11-02 16:41:00,64.8,46.8,29.54,NW,307,1.0,10.0,52,0.00,,---,0.00,VWS V14.00,2013-11-02 20:41:00,
2013-11-02 16:46:00,64.7,46.7,29.54,NW,308,3.0,6.0,52,0.00,,---,0.00,VWS V14.00,2013-11-02 20:46:00,
2013-11-02 16:51:00,64.7,46.7,29.55,WNW,293,2.0,8.0,52,0.00,,---,0.00,VWS V14.00,2013-11-02 20:51:00,
2013-11-02 16:56:00,64.7,46.2,29.54,NNW,330,5.0,15.0,51,0.00,,---,0.00,VWS V14.00,2013-11-02 20:56:00,
2013-11-02 17:01:00,64.6,46.1,29.55,West,281,5.0,9.0,51,0.00,,---,0.00,VWS V14.00,2013-11-02 21:01:00,
2013-11-02 17:06:00,64.4,46.4,29.55,NNW,332,4.0,6.0,52,0.00,,---,0.00,VWS V14.00,2013-11-02 21:06:00,
2013-11-02 17:11:00,64.0,47.0,29.55,WNW,300,6.0,12.0,54,0.00,,---,0.00,VWS V14.00,2013-11-02 21:11:00,
2013-11-02 17:17:00,63.2,47.3,29.56,NNW,329,4.0,14.0,56,0.00,,---,0.00,VWS V14.00,2013-11-02 21:17:00,
2013-11-02 17:22:00,62.7,47.3,29.56,NW,319,3.0,9.0,57,0.00,,---,0.00,VWS V14.00,2013-11-02 21:22:00,
2013-11-02 17:27:00,62.4,47.0,29.56,WNW,295,6.0,13.0,57,0.00,,---,0.00,VWS V14.00,2013-11-02 21:27:00,
2013-11-02 17:32:00,62.2,46.8,29.57,WNW,301,1.0,8.0,57,0.00,,---,0.00,VWS V14.00,2013-11-02 21:32:00,
2013-11-02 17:37:00,62.1,46.7,29.57,NNE,18,7.0,8.0,57,0.00,,---,0.00,VWS V14.00,2013-11-02 21:37:00,
2013-11-02 17:42:00,61.9,46.5,29.57,NW,323,5.0,11.0,57,0.00,,---,0.00,VWS V14.00,2013-11-02 21:42:00,
2013-11-02 17:47:00,61.8,46.4,29.57,NW,314,3.0,6.0,57,0.00,,---,0.00,VWS V14.00,2013-11-02 21:47:00,
2013-11-02 17:52:00,61.6,46.2,29.57,West,277,4.0,7.0,57,0.00,,---,0.00,VWS V14.00,2013-11-02 21:52:00,
2013-11-02 17:57:00,61.5,46.6,29.58,WNW,295,3.0,5.0,58,0.00,,---,0.00,VWS V14.00,2013-11-02 21:57:00,
2013-11-02 18:03:00,61.4,45.6,29.58,NW,320,3.0,8.0,56,0.00,,---,0.00,VWS V14.00,2013-11-02 22:03:00,
2013-11-02 18:08:00,61.3,45.5,29.58,WNW,292,3.0,6.0,56,0.00,,---,0.00,VWS V14.00,2013-11-02 22:08:00,
2013-11-02 18:13:00,61.3,45.0,29.58,NNW,328,4.0,8.0,55,0.00,,---,0.00,VWS V14.00,2013-11-02 22:13:00,
2013-11-02 18:18:00,61.2,44.4,29.59,SW,224,4.0,6.0,54,0.00,,---,0.00,VWS V14.00,2013-11-02 22:18:00,
2013-11-02 18:23:00,61.2,44.0,29.59,West,266,4.0,8.0,53,0.00,,---,0.00,VWS V14.00,2013-11-02 22:23:00,
2013-11-02 18:28:00,61.1,43.9,29.59,NW,307,1.0,7.0,53,0.00,,---,0.00,VWS V14.00,2013-11-02 22:28:00,
2013-11-02 18:33:00,60.9,43.7,29.60,NW,312,1.0,4.0,53,0.00,,---,0.00,VWS V14.00,2013-11-02 22:33:00,
2013-11-02 18:38:00,60.6,43.4,29.59,WNW,293,1.0,2.0,53,0.00,,---,0.00,VWS V14.00,2013-11-02 22:38:00,
2013-11-02 18:43:00,60.4,43.2,29.60,WNW,295,0.0,4.0,53,0.00,,---,0.00,VWS V14.00,2013-11-02 22:43:00,
2013-11-02 18:48:00,60.0,42.8,29.60,NW,318,2.0,3.0,53,0.00,,---,0.00,VWS V14.00,2013-11-02 22:48:00,
2013-11-02 18:53:00,59.7,43.0,29.60,WNW,296,0.0,2.0,54,0.00,,---,0.00,VWS V14.00,2013-11-02 22:53:00,
2013-11-02 18:58:00,59.3,42.7,29.60,NW,326,2.0,2.0,54,0.00,,---,0.00,VWS V14.00,2013-11-02 22:58:00,
2013-11-02 19:03:00,59.1,42.5,29.60,NW,311,3.0,4.0,54,0.00,,---,0.00,VWS V14.00,2013-11-02 23:03:00,
2013-11-02 19:08:00,59.0,42.4,29.61,WNW,286,3.0,4.0,54,0.00,,---,0.00,VWS V14.00,2013-11-02 23:08:00,
2013-11-02 19:13:00,58.9,41.8,29.61,WNW,297,0.0,7.0,53,0.00,,---,0.00,VWS V14.00,2013-11-02 23:13:00,
2013-11-02 19:18:00,58.9,41.8,29.62,WNW,283,0.0,0.0,53,0.00,,---,0.00,VWS V14.00,2013-11-02 23:18:00,
2013-11-02 19:23:00,58.8,41.7,29.62,WNW,297,2.0,2.0,53,0.00,,---,0.00,VWS V14.00,2013-11-02 23:23:00,
2013-11-02 19:28:00,58.6,42.0,29.62,WNW,303,5.0,6.0,54,0.00,,---,0.00,VWS V14.00,2013-11-02 23:28:00,
2013-11-02 19:33:00,58.3,41.8,29.62,West,267,0.0,0.0,54,0.00,,---,0.00,VWS V14.00,2013-11-02 23:33:00,
2013-11-02 19:38:00,58.3,41.3,29.62,NW,311,2.0,5.0,53,0.00,,---,0.00,VWS V14.00,2013-11-02 23:38:00,
2013-11-02 19:43:00,58.3,41.3,29.63,WNW,297,6.0,6.0,53,0.00,,---,0.00,VWS V14.00,2013-11-02 23:43:00,
2013-11-02 19:48:00,58.0,41.0,29.63,NNW,328,2.0,4.0,53,0.00,,---,0.00,VWS V14.00,2013-11-02 23:48:00,
2013-11-02 19:54:00,58.0,41.0,29.63,WNW,293,1.0,4.0,53,0.00,,---,0.00,VWS V14.00,2013-11-02 23:54:00,
2013-11-02 19:59:00,57.9,40.9,29.63,West,264,1.0,4.0,53,0.00,,---,0.00,VWS V14.00,2013-11-02 23:59:00,
2013-11-02 20:04:00,57.8,40.8,29.63,WNW,295,2.0,5.0,53,0.00,,---,0.00,VWS V14.00,2013-11-03 00:04:00,
2013-11-02 20:09:00,57.6,40.6,29.63,NNW,328,3.0,4.0,53,0.00,,---,0.00,VWS V14.00,2013-11-03 00:09:00,
2013-11-02 20:14:00,57.4,40.4,29.63,North,352,1.0,2.0,53,0.00,,---,0.00,VWS V14.00,2013-11-03 00:14:00,
2013-11-02 20:19:00,57.1,40.6,29.63,NW,308,0.0,2.0,54,0.00,,---,0.00,VWS V14.00,2013-11-03 00:19:00,
2013-11-02 20:24:00,56.8,40.3,29.64,NW,325,0.0,2.0,54,0.00,,---,0.00,VWS V14.00,2013-11-03 00:24:00,
2013-11-02 20:29:00,56.5,40.5,29.64,NW,314,0.0,0.0,55,0.00,,---,0.00,VWS V14.00,2013-11-03 00:29:00,
2013-11-02 20:34:00,56.2,40.7,29.64,WNW,290,0.0,2.0,56,0.00,,---,0.00,VWS V14.00,2013-11-03 00:34:00,
2013-11-02 20:40:00,55.8,40.4,29.65,WNW,287,1.0,2.0,56,0.00,,---,0.00,VWS V14.00,2013-11-03 00:40:00,
2013-11-02 20:45:00,55.7,40.3,29.65,NW,314,1.0,2.0,56,0.00,,---,0.00,VWS V14.00,2013-11-03 00:45:00,
2013-11-02 20:50:00,55.4,40.4,29.65,NW,315,0.0,1.0,57,0.00,,---,0.00,VWS V14.00,2013-11-03 00:50:00,
2013-11-02 20:55:00,55.0,40.5,29.65,NW,318,0.0,1.0,58,0.00,,---,0.00,VWS V14.00,2013-11-03 00:55:00,
2013-11-02 21:00:00,54.8,40.3,29.66,NW,311,0.0,1.0,58,0.00,,---,0.00,VWS V14.00,2013-11-03 01:00:00,
2013-11-02 21:05:00,54.7,40.2,29.66,NW,315,0.0,3.0,58,0.00,,---,0.00,VWS V14.00,2013-11-03 01:05:00,
2013-11-02 21:10:00,54.6,40.6,29.66,NW,307,0.0,4.0,59,0.00,,---,0.00,VWS V14.00,2013-11-03 01:10:00,
2013-11-02 21:16:00,54.4,40.4,29.66,NW,324,3.0,3.0,59,0.00,,---,0.00,VWS V14.00,2013-11-03 01:16:00,
2013-11-02 21:21:00,54.5,40.5,29.66,WNW,288,2.0,3.0,59,0.00,,---,0.00,VWS V14.00,2013-11-03 01:21:00,
2013-11-02 21:26:00,54.6,40.1,29.66,West,277,1.0,1.0,58,0.00,,---,0.00,VWS V14.00,2013-11-03 01:26:00,
2013-11-02 21:31:00,54.5,40.5,29.66,West,281,0.0,1.0,59,0.00,,---,0.00,VWS V14.00,2013-11-03 01:31:00,
2013-11-02 21:36:00,54.2,40.6,29.67,West,277,0.0,1.0,60,0.00,,---,0.00,VWS V14.00,2013-11-03 01:36:00,
2013-11-02 21:41:00,54.0,40.4,29.67,WNW,294,0.0,2.0,60,0.00,,---,0.00,VWS V14.00,2013-11-03 01:41:00,
2013-11-02 21:46:00,53.8,40.7,29.67,WNW,295,0.0,0.0,61,0.00,,---,0.00,VWS V14.00,2013-11-03 01:46:00,
2013-11-02 21:51:00,53.3,40.2,29.67,WNW,295,0.0,0.0,61,0.00,,---,0.00,VWS V14.00,2013-11-03 01:51:00,
2013-11-02 21:56:00,53.4,40.3,29.67,NW,312,4.0,4.0,61,0.00,,---,0.00,VWS V14.00,2013-11-03 01:56:00,
2013-11-02 22:01:00,53.2,40.5,29.67,NW,322,2.0,2.0,62,0.00,,---,0.00,VWS V14.00,2013-11-03 02:01:00,
2013-11-02 22:06:00,53.2,40.5,29.67,NW,311,1.0,1.0,62,0.00,,---,0.00,VWS V14.00,2013-11-03 02:06:00,
2013-11-02 22:11:00,53.2,40.5,29.67,WNW,292,0.0,2.0,62,0.00,,---,0.00,VWS V14.00,2013-11-03 02:11:00,
2013-11-02 22:16:00,52.9,40.7,29.67,WNW,300,1.0,1.0,63,0.00,,---,0.00,VWS V14.00,2013-11-03 02:16:00,
2013-11-02 22:21:00,53.0,40.8,29.67,WNW,284,0.0,2.0,63,0.00,,---,0.00,VWS V14.00,2013-11-03 02:21:00,
2013-11-02 22:26:00,52.7,40.5,29.68,WNW,288,0.0,3.0,63,0.00,,---,0.00,VWS V14.00,2013-11-03 02:26:00,
2013-11-02 22:32:00,52.4,41.0,29.68,NNW,342,2.0,2.0,65,0.00,,---,0.00,VWS V14.00,2013-11-03 02:32:00,
2013-11-02 22:37:00,52.4,41.0,29.68,NNW,340,1.0,2.0,65,0.00,,---,0.00,VWS V14.00,2013-11-03 02:37:00,
2013-11-02 22:42:00,52.2,40.8,29.68,NNW,329,0.0,2.0,65,0.00,,---,0.00,VWS V14.00,2013-11-03 02:42:00,
2013-11-02 22:47:00,52.2,40.8,29.68,West,269,1.0,1.0,65,0.00,,---,0.00,VWS V14.00,2013-11-03 02:47:00,
2013-11-02 22:52:00,52.2,40.8,29.69,WSW,256,0.0,1.0,65,0.00,,---,0.00,VWS V14.00,2013-11-03 02:52:00,
2013-11-02 22:57:00,51.9,40.5,29.69,West,264,0.0,1.0,65,0.00,,---,0.00,VWS V14.00,2013-11-03 02:57:00,
2013-11-02 23:02:00,51.6,40.6,29.69,West,264,0.0,0.0,66,0.00,,---,0.00,VWS V14.00,2013-11-03 03:02:00,
2013-11-02 23:07:00,51.5,40.9,29.69,West,280,0.0,0.0,67,0.00,,---,0.00,VWS V14.00,2013-11-03 03:07:00,
2013-11-02 23:12:00,51.7,40.7,29.69,West,280,0.0,0.0,66,0.00,,---,0.00,VWS V14.00,2013-11-03 03:12:00,
2013-11-02 23:17:00,51.6,41.0,29.69,West,280,0.0,0.0,67,0.00,,---,0.00,VWS V14.00,2013-11-03 03:17:00,
2013-11-02 23:22:00,51.6,41.0,29.69,WNW,285,0.0,1.0,67,0.00,,---,0.00,VWS V14.00,2013-11-03 03:22:00,
2013-11-02 23:28:00,51.5,40.9,29.70,WNW,287,0.0,1.0,67,0.00,,---,0.00,VWS V14.00,2013-11-03 03:28:00,
2013-11-02 23:33:00,51.4,41.2,29.70,NW,308,0.0,0.0,68,0.00,,---,0.00,VWS V14.00,2013-11-03 03:33:00,
2013-11-02 23:38:00,51.2,41.4,29.69,NW,308,0.0,0.0,69,0.00,,---,0.00,VWS V14.00,2013-11-03 03:38:00,
2013-11-02 23:43:00,51.1,41.3,29.70,NW,307,0.0,0.0,69,0.00,,---,0.00,VWS V14.00,2013-11-03 03:43:00,
2013-11-02 23:48:00,51.2,41.4,29.70,NW,307,0.0,0.0,69,0.00,,---,0.00,VWS V14.00,2013-11-03 03:48:00,
2013-11-02 23:53:00,51.2,41.0,29.70,NW,307,0.0,0.0,68,0.00,,---,0.00,VWS V14.00,2013-11-03 03:53:00,
2013-11-02 23:58:00,51.0,41.2,29.70,NW,307,0.0,0.0,69,0.00,,---,0.00,VWS V14.00,2013-11-03 03:58:00,